Year,Month,Day,Hour,Minute,Value (Times are PST for temperature in C)
2009,04,16,00,00,6.70
2009,04,16,00,01,6.70
2009,04,16,00,02,6.70
2009,04,16,00,03,6.70
2009,04,16,00,04,6.70
2009,04,16,00,05,6.70
2009,04,16,00,06,6.70
2009,04,16,00,07,6.70
2009,04,16,00,08,6.70
2009,04,16,00,09,6.70
2009,04,16,00,10,6.70
2009,04,16,00,11,6.70
2009,04,16,00,12,6.70
2009,04,16,00,13,6.70
2009,04,16,00,14,6.70
2009,04,16,00,15,6.70
2009,04,16,00,16,6.70
2009,04,16,00,17,6.70
2009,04,16,00,18,6.70
2009,04,16,00,19,6.60
2009,04,16,00,20,6.60
2009,04,16,00,21,6.60
2009,04,16,00,22,6.60
2009,04,16,00,23,6.60
2009,04,16,00,24,6.60
2009,04,16,00,25,6.60
2009,04,16,00,26,6.60
2009,04,16,00,27,6.60
2009,04,16,00,28,6.50
2009,04,16,00,29,6.40
2009,04,16,00,30,6.40
2009,04,16,00,31,6.40
2009,04,16,00,32,6.40
2009,04,16,00,33,6.40
2009,04,16,00,34,6.40
2009,04,16,00,35,6.40
2009,04,16,00,36,6.40
2009,04,16,00,37,6.40
2009,04,16,00,38,6.40
2009,04,16,00,39,6.40
2009,04,16,00,40,6.40
2009,04,16,00,41,6.40
2009,04,16,00,42,6.40
2009,04,16,00,43,6.40
2009,04,16,00,44,6.40
2009,04,16,00,45,6.40
2009,04,16,00,46,6.40
2009,04,16,00,47,6.40
2009,04,16,00,48,6.30
2009,04,16,00,49,6.30
2009,04,16,00,50,6.20
2009,04,16,00,51,6.20
2009,04,16,00,52,6.20
2009,04,16,00,53,6.20
2009,04,16,00,54,6.20
2009,04,16,00,55,6.20
2009,04,16,00,56,6.20
2009,04,16,00,57,6.20
2009,04,16,00,58,6.10
2009,04,16,00,59,6.10
2009,04,16,01,00,6.10
2009,04,16,01,01,6.00
2009,04,16,01,02,6.00
2009,04,16,01,03,5.90
2009,04,16,01,04,5.80
2009,04,16,01,05,5.70
2009,04,16,01,06,5.70
2009,04,16,01,07,5.60
2009,04,16,01,08,5.60
2009,04,16,01,09,5.50
2009,04,16,01,10,5.50
2009,04,16,01,11,5.40
2009,04,16,01,12,5.40
2009,04,16,01,13,5.30
2009,04,16,01,14,5.30
2009,04,16,01,15,5.30
2009,04,16,01,16,5.30
2009,04,16,01,17,5.20
2009,04,16,01,18,5.20
2009,04,16,01,19,5.20
2009,04,16,01,20,5.10
2009,04,16,01,21,5.10
2009,04,16,01,22,5.00
2009,04,16,01,23,4.90
2009,04,16,01,24,4.90
2009,04,16,01,25,4.90
2009,04,16,01,26,4.80
2009,04,16,01,27,4.70
2009,04,16,01,28,4.70
2009,04,16,01,29,4.70
2009,04,16,01,30,4.60
2009,04,16,01,31,4.60
2009,04,16,01,32,4.60
2009,04,16,01,33,4.60
2009,04,16,01,34,4.50
2009,04,16,01,35,4.50
2009,04,16,01,36,4.50
2009,04,16,01,37,4.50
2009,04,16,01,38,4.50
2009,04,16,01,39,4.50
2009,04,16,01,40,4.50
2009,04,16,01,41,4.40
2009,04,16,01,42,4.50
2009,04,16,01,43,4.50
2009,04,16,01,44,4.50
2009,04,16,01,45,4.40
2009,04,16,01,46,4.40
2009,04,16,01,47,4.40
2009,04,16,01,48,4.40
2009,04,16,01,49,4.30
2009,04,16,01,50,4.30
2009,04,16,01,51,4.30
2009,04,16,01,52,4.30
2009,04,16,01,53,4.20
2009,04,16,01,54,4.20
2009,04,16,01,55,4.20
2009,04,16,01,56,4.20
2009,04,16,01,57,4.20
2009,04,16,01,58,4.20
2009,04,16,01,59,4.10
2009,04,16,02,00,4.10
2009,04,16,02,01,4.00
2009,04,16,02,02,4.00
2009,04,16,02,03,4.00
2009,04,16,02,04,4.00
2009,04,16,02,05,3.90
2009,04,16,02,06,3.90
2009,04,16,02,07,3.90
2009,04,16,02,08,3.90
2009,04,16,02,09,3.90
2009,04,16,02,10,3.80
2009,04,16,02,11,3.80
2009,04,16,02,12,3.80
2009,04,16,02,13,3.80
2009,04,16,02,14,3.80
2009,04,16,02,15,3.80
2009,04,16,02,16,3.80
2009,04,16,02,17,3.80
2009,04,16,02,18,3.80
2009,04,16,02,19,3.80
2009,04,16,02,20,3.80
2009,04,16,02,21,3.80
2009,04,16,02,22,3.80
2009,04,16,02,23,3.80
2009,04,16,02,24,3.80
2009,04,16,02,25,3.80
2009,04,16,02,26,3.80
2009,04,16,02,27,3.80
2009,04,16,02,28,3.80
2009,04,16,02,29,3.80
2009,04,16,02,30,3.80
2009,04,16,02,31,3.70
2009,04,16,02,32,3.70
2009,04,16,02,33,3.60
2009,04,16,02,34,3.60
2009,04,16,02,35,3.50
2009,04,16,02,36,3.50
2009,04,16,02,37,3.50
2009,04,16,02,38,3.40
2009,04,16,02,39,3.40
2009,04,16,02,40,3.30
2009,04,16,02,41,3.30
2009,04,16,02,42,3.30
2009,04,16,02,43,3.30
2009,04,16,02,44,3.20
2009,04,16,02,45,3.20
2009,04,16,02,46,3.20
2009,04,16,02,47,3.20
2009,04,16,02,48,3.10
2009,04,16,02,49,3.10
2009,04,16,02,50,3.10
2009,04,16,02,51,3.10
2009,04,16,02,52,3.10
2009,04,16,02,53,3.10
2009,04,16,02,54,3.10
2009,04,16,02,55,3.10
2009,04,16,02,56,3.10
2009,04,16,02,57,3.10
2009,04,16,02,58,3.10
2009,04,16,02,59,3.10
2009,04,16,03,00,3.10
2009,04,16,03,01,3.10
2009,04,16,03,02,3.10
2009,04,16,03,03,3.10
2009,04,16,03,04,3.10
2009,04,16,03,05,3.00
2009,04,16,03,06,2.90
2009,04,16,03,07,2.90
2009,04,16,03,08,2.90
2009,04,16,03,09,2.90
2009,04,16,03,10,2.90
2009,04,16,03,11,2.90
2009,04,16,03,12,2.80
2009,04,16,03,13,2.80
2009,04,16,03,14,2.80
2009,04,16,03,15,2.80
2009,04,16,03,16,2.70
2009,04,16,03,17,2.70
2009,04,16,03,18,2.70
2009,04,16,03,19,2.70
2009,04,16,03,20,2.70
2009,04,16,03,21,2.70
2009,04,16,03,22,2.70
2009,04,16,03,23,2.70
2009,04,16,03,24,2.70
2009,04,16,03,25,2.70
2009,04,16,03,26,2.70
2009,04,16,03,27,2.70
2009,04,16,03,28,2.70
2009,04,16,03,29,2.70
2009,04,16,03,30,2.60
2009,04,16,03,31,2.60
2009,04,16,03,32,2.60
2009,04,16,03,33,2.60
2009,04,16,03,34,2.60
2009,04,16,03,35,2.60
2009,04,16,03,36,2.60
2009,04,16,03,37,2.60
2009,04,16,03,38,2.60
2009,04,16,03,39,2.60
2009,04,16,03,40,2.60
2009,04,16,03,41,2.60
2009,04,16,03,42,2.60
2009,04,16,03,43,2.60
2009,04,16,03,44,2.60
2009,04,16,03,45,2.60
2009,04,16,03,46,2.60
2009,04,16,03,47,2.50
2009,04,16,03,48,2.50
2009,04,16,03,49,2.50
2009,04,16,03,50,2.50
2009,04,16,03,51,2.50
2009,04,16,03,52,2.50
2009,04,16,03,53,2.50
2009,04,16,03,54,2.50
2009,04,16,03,55,2.50
2009,04,16,03,56,2.50
2009,04,16,03,57,2.50
2009,04,16,03,58,2.50
2009,04,16,03,59,2.50
2009,04,16,04,00,2.50
2009,04,16,04,01,2.40
2009,04,16,04,02,2.40
2009,04,16,04,03,2.40
2009,04,16,04,04,2.40
2009,04,16,04,05,2.30
2009,04,16,04,06,2.30
2009,04,16,04,07,2.30
2009,04,16,04,08,2.40
2009,04,16,04,09,2.30
2009,04,16,04,10,2.30
2009,04,16,04,11,2.30
2009,04,16,04,12,2.30
2009,04,16,04,13,2.20
2009,04,16,04,14,2.20
2009,04,16,04,15,2.20
2009,04,16,04,16,2.20
2009,04,16,04,17,2.20
2009,04,16,04,18,2.20
2009,04,16,04,19,2.20
2009,04,16,04,20,2.20
2009,04,16,04,21,2.20
2009,04,16,04,22,2.20
2009,04,16,04,23,2.20
2009,04,16,04,24,2.20
2009,04,16,04,25,2.20
2009,04,16,04,26,2.20
2009,04,16,04,27,2.20
2009,04,16,04,28,2.20
2009,04,16,04,29,2.20
2009,04,16,04,30,2.20
2009,04,16,04,31,2.20
2009,04,16,04,32,2.20
2009,04,16,04,33,2.20
2009,04,16,04,34,2.20
2009,04,16,04,35,2.20
2009,04,16,04,36,2.20
2009,04,16,04,37,2.20
2009,04,16,04,38,2.20
2009,04,16,04,39,2.20
2009,04,16,04,40,2.20
2009,04,16,04,41,2.20
2009,04,16,04,42,2.20
2009,04,16,04,43,2.20
2009,04,16,04,44,2.20
2009,04,16,04,45,2.20
2009,04,16,04,46,2.20
2009,04,16,04,47,2.10
2009,04,16,04,48,2.10
2009,04,16,04,49,2.10
2009,04,16,04,50,2.10
2009,04,16,04,51,2.10
2009,04,16,04,52,2.00
2009,04,16,04,53,2.00
2009,04,16,04,54,2.00
2009,04,16,04,55,2.00
2009,04,16,04,56,1.90
2009,04,16,04,57,1.90
2009,04,16,04,58,1.90
2009,04,16,04,59,1.90
2009,04,16,05,00,1.90
2009,04,16,05,01,1.90
2009,04,16,05,02,1.80
2009,04,16,05,03,1.80
2009,04,16,05,04,1.80
2009,04,16,05,05,1.80
2009,04,16,05,06,1.80
2009,04,16,05,07,1.80
2009,04,16,05,08,1.80
2009,04,16,05,09,1.80
2009,04,16,05,10,1.80
2009,04,16,05,11,1.80
2009,04,16,05,12,1.80
2009,04,16,05,13,1.80
2009,04,16,05,14,1.80
2009,04,16,05,15,1.80
2009,04,16,05,16,1.70
2009,04,16,05,17,1.70
2009,04,16,05,18,1.70
2009,04,16,05,19,1.70
2009,04,16,05,20,1.70
2009,04,16,05,21,1.70
2009,04,16,05,22,1.70
2009,04,16,05,23,1.70
2009,04,16,05,24,1.70
2009,04,16,05,25,1.70
2009,04,16,05,26,1.70
2009,04,16,05,27,1.70
2009,04,16,05,28,1.70
2009,04,16,05,29,1.70
2009,04,16,05,30,1.70
2009,04,16,05,31,1.70
2009,04,16,05,32,1.70
2009,04,16,05,33,1.70
2009,04,16,05,34,1.70
2009,04,16,05,35,1.70
2009,04,16,05,36,1.70
2009,04,16,05,37,1.70
2009,04,16,05,38,1.70
2009,04,16,05,39,1.70
2009,04,16,05,40,1.70
2009,04,16,05,41,1.70
2009,04,16,05,42,1.70
2009,04,16,05,43,1.70
2009,04,16,05,44,1.70
2009,04,16,05,45,1.70
2009,04,16,05,46,1.70
2009,04,16,05,47,1.70
2009,04,16,05,48,1.80
2009,04,16,05,49,1.80
2009,04,16,05,50,1.80
2009,04,16,05,51,1.80
2009,04,16,05,52,1.80
2009,04,16,05,53,1.80
2009,04,16,05,54,1.80
2009,04,16,05,55,1.80
2009,04,16,05,56,1.80
2009,04,16,05,57,1.80
2009,04,16,05,58,1.80
2009,04,16,05,59,1.80
2009,04,16,06,00,1.80
2009,04,16,06,01,1.80
2009,04,16,06,02,1.80
2009,04,16,06,03,1.80
2009,04,16,06,04,1.80
2009,04,16,06,05,1.80
2009,04,16,06,06,1.80
2009,04,16,06,07,1.80
2009,04,16,06,08,1.80
2009,04,16,06,09,1.80
2009,04,16,06,10,1.80
2009,04,16,06,11,1.80
2009,04,16,06,12,1.80
2009,04,16,06,13,1.80
2009,04,16,06,14,1.80
2009,04,16,06,15,1.80
2009,04,16,06,16,1.80
2009,04,16,06,17,1.80
2009,04,16,06,18,1.80
2009,04,16,06,19,1.80
2009,04,16,06,20,1.90
2009,04,16,06,21,1.90
2009,04,16,06,22,1.90
2009,04,16,06,23,1.90
2009,04,16,06,24,1.90
2009,04,16,06,25,1.90
2009,04,16,06,26,1.90
2009,04,16,06,27,1.90
2009,04,16,06,28,2.00
2009,04,16,06,29,2.00
2009,04,16,06,30,2.00
2009,04,16,06,31,2.00
2009,04,16,06,32,2.00
2009,04,16,06,33,2.00
2009,04,16,06,34,2.00
2009,04,16,06,35,2.00
2009,04,16,06,36,2.00
2009,04,16,06,37,2.00
2009,04,16,06,38,2.10
2009,04,16,06,39,2.10
2009,04,16,06,40,2.10
2009,04,16,06,41,2.10
2009,04,16,06,42,2.10
2009,04,16,06,43,2.10
2009,04,16,06,44,2.10
2009,04,16,06,45,2.10
2009,04,16,06,46,2.10
2009,04,16,06,47,2.10
2009,04,16,06,48,2.20
2009,04,16,06,49,2.20
2009,04,16,06,50,2.20
2009,04,16,06,51,2.20
2009,04,16,06,52,2.20
2009,04,16,06,53,2.20
2009,04,16,06,54,2.20
2009,04,16,06,55,2.20
2009,04,16,06,56,2.20
2009,04,16,06,57,2.20
2009,04,16,06,58,2.20
2009,04,16,06,59,2.20
2009,04,16,07,00,2.20
2009,04,16,07,01,2.20
2009,04,16,07,02,2.20
2009,04,16,07,03,2.20
2009,04,16,07,04,2.20
2009,04,16,07,05,2.20
2009,04,16,07,06,2.20
2009,04,16,07,07,2.30
2009,04,16,07,08,2.30
2009,04,16,07,09,2.30
2009,04,16,07,10,2.30
2009,04,16,07,11,2.30
2009,04,16,07,12,2.30
2009,04,16,07,13,2.30
2009,04,16,07,14,2.30
2009,04,16,07,15,2.30
2009,04,16,07,16,2.20
2009,04,16,07,17,2.20
2009,04,16,07,18,2.20
2009,04,16,07,19,2.20
2009,04,16,07,20,2.20
2009,04,16,07,21,2.20
2009,04,16,07,22,2.30
2009,04,16,07,23,2.30
2009,04,16,07,24,2.30
2009,04,16,07,25,2.30
2009,04,16,07,26,2.40
2009,04,16,07,27,2.40
2009,04,16,07,28,2.40
2009,04,16,07,29,2.50
2009,04,16,07,30,2.50
2009,04,16,07,31,2.60
2009,04,16,07,32,2.60
2009,04,16,07,33,2.70
2009,04,16,07,34,2.70
2009,04,16,07,35,2.70
2009,04,16,07,36,2.70
2009,04,16,07,37,2.80
2009,04,16,07,38,2.80
2009,04,16,07,39,2.90
2009,04,16,07,40,3.00
2009,04,16,07,41,3.10
2009,04,16,07,42,3.10
2009,04,16,07,43,3.20
2009,04,16,07,44,3.20
2009,04,16,07,45,3.30
2009,04,16,07,46,3.30
2009,04,16,07,47,3.30
2009,04,16,07,48,3.40
2009,04,16,07,49,3.50
2009,04,16,07,50,3.50
2009,04,16,07,51,3.60
2009,04,16,07,52,3.60
2009,04,16,07,53,3.70
2009,04,16,07,54,3.70
2009,04,16,07,55,3.80
2009,04,16,07,56,3.80
2009,04,16,07,57,3.80
2009,04,16,07,58,3.90
2009,04,16,07,59,3.90
2009,04,16,08,00,4.00
2009,04,16,08,01,4.00
2009,04,16,08,02,4.00
2009,04,16,08,03,4.10
2009,04,16,08,04,4.20
2009,04,16,08,05,4.30
2009,04,16,08,06,4.30
2009,04,16,08,07,4.40
2009,04,16,08,08,4.40
2009,04,16,08,09,4.40
2009,04,16,08,10,4.50
2009,04,16,08,11,4.50
2009,04,16,08,12,4.50
2009,04,16,08,13,4.50
2009,04,16,08,14,4.60
2009,04,16,08,15,4.60
2009,04,16,08,16,4.60
2009,04,16,08,17,4.60
2009,04,16,08,18,4.70
2009,04,16,08,19,4.70
2009,04,16,08,20,4.70
2009,04,16,08,21,4.80
2009,04,16,08,22,4.80
2009,04,16,08,23,4.80
2009,04,16,08,24,4.90
2009,04,16,08,25,4.90
2009,04,16,08,26,4.90
2009,04,16,08,27,4.90
2009,04,16,08,28,5.10
2009,04,16,08,29,5.10
2009,04,16,08,30,5.10
2009,04,16,08,31,5.20
2009,04,16,08,32,5.20
2009,04,16,08,33,5.30
2009,04,16,08,34,5.30
2009,04,16,08,35,5.30
2009,04,16,08,36,5.30
2009,04,16,08,37,5.30
2009,04,16,08,38,5.30
2009,04,16,08,39,5.40
2009,04,16,08,40,5.40
2009,04,16,08,41,5.40
2009,04,16,08,42,5.40
2009,04,16,08,43,5.40
2009,04,16,08,44,5.40
2009,04,16,08,45,5.40
2009,04,16,08,46,5.40
2009,04,16,08,47,5.40
2009,04,16,08,48,5.40
2009,04,16,08,49,5.50
2009,04,16,08,50,5.50
2009,04,16,08,51,5.50
2009,04,16,08,52,5.50
2009,04,16,08,53,5.50
2009,04,16,08,54,5.50
2009,04,16,08,55,5.60
2009,04,16,08,56,5.60
2009,04,16,08,57,5.70
2009,04,16,08,58,5.70
2009,04,16,08,59,5.70
2009,04,16,09,00,5.70
2009,04,16,09,01,5.70
2009,04,16,09,02,5.70
2009,04,16,09,03,5.80
2009,04,16,09,04,5.80
2009,04,16,09,05,5.90
2009,04,16,09,06,5.90
2009,04,16,09,07,5.90
2009,04,16,09,08,5.90
2009,04,16,09,09,6.00
2009,04,16,09,10,6.00
2009,04,16,09,11,6.00
2009,04,16,09,12,6.00
2009,04,16,09,13,6.10
2009,04,16,09,14,6.10
2009,04,16,09,15,6.20
2009,04,16,09,16,6.20
2009,04,16,09,17,6.20
2009,04,16,09,18,6.30
2009,04,16,09,19,6.30
2009,04,16,09,20,6.40
2009,04,16,09,21,6.40
2009,04,16,09,22,6.40
2009,04,16,09,23,6.40
2009,04,16,09,24,6.50
2009,04,16,09,25,6.60
2009,04,16,09,26,6.60
2009,04,16,09,27,6.60
2009,04,16,09,28,6.60
2009,04,16,09,29,6.70
2009,04,16,09,30,6.70
2009,04,16,09,31,6.70
2009,04,16,09,32,6.70
2009,04,16,09,33,6.80
2009,04,16,09,34,6.80
2009,04,16,09,35,6.80
2009,04,16,09,36,6.80
2009,04,16,09,37,6.90
2009,04,16,09,38,6.90
2009,04,16,09,39,6.90
2009,04,16,09,40,6.90
2009,04,16,09,41,6.90
2009,04,16,09,42,7.00
2009,04,16,09,43,7.00
2009,04,16,09,44,7.00
2009,04,16,09,45,7.10
2009,04,16,09,46,7.10
2009,04,16,09,47,7.20
2009,04,16,10,02,6.70
2009,04,16,10,03,6.80
2009,04,16,10,04,6.80
2009,04,16,10,05,6.80
2009,04,16,10,06,6.80
2009,04,16,10,07,6.80
2009,04,16,10,08,6.80
2009,04,16,10,09,6.70
2009,04,16,10,10,6.70
2009,04,16,10,11,6.70
2009,04,16,10,12,6.70
2009,04,16,10,13,6.60
2009,04,16,10,14,6.60
2009,04,16,10,15,6.60
2009,04,16,10,16,6.70
2009,04,16,10,17,6.60
2009,04,16,10,18,6.60
2009,04,16,10,19,6.60
2009,04,16,10,20,6.60
2009,04,16,10,21,6.60
2009,04,16,10,22,6.60
2009,04,16,10,23,6.60
2009,04,16,10,24,6.60
2009,04,16,10,25,6.60
2009,04,16,10,26,6.60
2009,04,16,10,27,6.60
2009,04,16,10,28,6.60
2009,04,16,10,29,6.60
2009,04,16,10,30,6.60
2009,04,16,10,31,6.60
2009,04,16,10,32,6.60
2009,04,16,10,33,6.60
2009,04,16,10,34,6.70
2009,04,16,10,35,6.80
2009,04,16,10,36,6.80
2009,04,16,10,37,6.90
2009,04,16,10,38,7.00
2009,04,16,10,39,7.00
2009,04,16,10,40,7.10
2009,04,16,10,41,7.10
2009,04,16,10,42,7.20
2009,04,16,10,43,7.30
2009,04,16,10,44,7.30
2009,04,16,10,45,7.30
2009,04,16,10,46,7.20
2009,04,16,10,47,7.10
2009,04,16,10,48,7.10
2009,04,16,10,49,7.00
2009,04,16,10,50,7.00
2009,04,16,10,51,7.10
2009,04,16,10,52,7.20
2009,04,16,10,53,7.20
2009,04,16,10,54,7.30
2009,04,16,10,55,7.30
2009,04,16,10,56,7.30
2009,04,16,10,57,7.20
2009,04,16,10,58,7.20
2009,04,16,10,59,7.20
2009,04,16,11,00,7.20
2009,04,16,11,01,7.20
2009,04,16,11,02,7.30
2009,04,16,11,03,7.40
2009,04,16,11,04,7.40
2009,04,16,11,05,7.50
2009,04,16,11,06,7.50
2009,04,16,11,07,7.50
2009,04,16,11,08,7.60
2009,04,16,11,09,7.60
2009,04,16,11,10,7.70
2009,04,16,11,11,7.70
2009,04,16,11,12,7.80
2009,04,16,11,13,7.80
2009,04,16,11,14,7.90
2009,04,16,11,15,7.90
2009,04,16,11,16,8.00
2009,04,16,11,17,8.00
2009,04,16,11,18,8.10
2009,04,16,11,19,8.10
2009,04,16,11,20,8.00
2009,04,16,11,21,8.00
2009,04,16,11,22,8.00
2009,04,16,11,23,8.10
2009,04,16,11,24,8.10
2009,04,16,11,25,8.10
2009,04,16,11,26,8.20
2009,04,16,11,27,8.20
2009,04,16,11,28,8.30
2009,04,16,11,29,8.30
2009,04,16,11,30,8.40
2009,04,16,11,31,8.50
2009,04,16,11,32,8.70
2009,04,16,11,33,8.80
2009,04,16,11,34,8.90
2009,04,16,11,35,8.90
2009,04,16,11,36,8.80
2009,04,16,11,37,8.70
2009,04,16,11,38,8.70
2009,04,16,11,39,8.80
2009,04,16,11,40,8.90
2009,04,16,11,41,9.00
2009,04,16,11,42,8.90
2009,04,16,11,43,9.00
2009,04,16,11,44,9.00
2009,04,16,11,45,9.00
2009,04,16,11,46,9.10
2009,04,16,11,47,9.10
2009,04,16,11,48,9.20
2009,04,16,11,49,9.30
2009,04,16,11,50,9.40
2009,04,16,11,51,9.40
2009,04,16,11,52,9.50
2009,04,16,11,53,9.50
2009,04,16,11,54,9.60
2009,04,16,11,55,9.70
2009,04,16,11,56,9.70
2009,04,16,11,57,9.70
2009,04,16,11,58,9.70
2009,04,16,11,59,9.70
2009,04,16,12,00,9.70
2009,04,16,12,01,9.70
2009,04,16,12,02,9.60
2009,04,16,12,03,9.50
2009,04,16,12,04,9.30
2009,04,16,12,05,9.20
2009,04,16,12,06,9.20
2009,04,16,12,07,9.30
2009,04,16,12,08,9.40
2009,04,16,12,09,9.50
2009,04,16,12,10,9.60
2009,04,16,12,11,9.70
2009,04,16,12,12,9.70
2009,04,16,12,13,9.90
2009,04,16,12,14,9.90
2009,04,16,12,15,10.10
2009,04,16,12,16,10.20
2009,04,16,12,17,10.30
2009,04,16,12,18,10.40
2009,04,16,12,19,10.60
2009,04,16,12,20,10.60
2009,04,16,12,21,10.60
2009,04,16,12,22,10.60
2009,04,16,12,23,10.60
2009,04,16,12,24,10.60
2009,04,16,12,25,10.80
2009,04,16,12,26,10.70
2009,04,16,12,27,10.50
2009,04,16,12,28,10.10
2009,04,16,12,29,9.90
2009,04,16,12,30,9.70
2009,04,16,12,31,9.70
2009,04,16,12,32,9.70
2009,04,16,12,33,9.70
2009,04,16,12,34,9.80
2009,04,16,12,35,9.90
2009,04,16,12,36,9.90
2009,04,16,12,37,9.90
2009,04,16,12,38,9.90
2009,04,16,12,39,10.00
2009,04,16,12,40,10.10
2009,04,16,12,41,10.10
2009,04,16,12,42,10.20
2009,04,16,12,43,10.10
2009,04,16,12,44,10.10
2009,04,16,12,45,10.10
2009,04,16,12,46,10.20
2009,04,16,12,47,10.20
2009,04,16,12,48,10.10
2009,04,16,12,49,10.10
2009,04,16,12,50,10.00
2009,04,16,12,51,10.00
2009,04,16,12,52,10.10
2009,04,16,12,53,10.20
2009,04,16,12,54,10.20
2009,04,16,12,55,10.20
2009,04,16,12,56,10.10
2009,04,16,12,57,10.20
2009,04,16,12,58,10.30
2009,04,16,12,59,10.40
2009,04,16,13,00,10.60
2009,04,16,13,01,10.60
2009,04,16,13,02,10.60
2009,04,16,13,03,10.60
2009,04,16,13,04,10.70
2009,04,16,13,05,10.70
2009,04,16,13,06,10.60
2009,04,16,13,07,10.60
2009,04,16,13,08,10.50
2009,04,16,13,09,10.40
2009,04,16,13,10,10.40
2009,04,16,13,11,10.40
2009,04,16,13,12,10.40
2009,04,16,13,13,10.40
2009,04,16,13,14,10.30
2009,04,16,13,15,10.30
2009,04,16,13,16,10.40
2009,04,16,13,17,10.30
2009,04,16,13,18,10.20
2009,04,16,13,19,10.20
2009,04,16,13,20,10.10
2009,04,16,13,21,10.20
2009,04,16,13,22,10.30
2009,04,16,13,23,10.40
2009,04,16,13,24,10.40
2009,04,16,13,25,10.40
2009,04,16,13,26,10.30
2009,04,16,13,27,10.30
2009,04,16,13,28,10.40
2009,04,16,13,29,10.40
2009,04,16,13,30,10.50
2009,04,16,13,31,10.60
2009,04,16,13,32,10.60
2009,04,16,13,33,10.50
2009,04,16,13,34,10.40
2009,04,16,13,35,10.40
2009,04,16,13,36,10.40
2009,04,16,13,37,10.40
2009,04,16,13,38,10.40
2009,04,16,13,39,10.40
2009,04,16,13,40,10.40
2009,04,16,13,41,10.50
2009,04,16,13,42,10.60
2009,04,16,13,43,10.60
2009,04,16,13,44,10.70
2009,04,16,13,45,10.70
2009,04,16,13,46,10.80
2009,04,16,13,47,10.80
2009,04,16,13,48,10.80
2009,04,16,13,49,10.70
2009,04,16,13,50,10.70
2009,04,16,13,51,10.60
2009,04,16,13,52,10.50
2009,04,16,13,53,10.50
2009,04,16,13,54,10.60
2009,04,16,13,55,10.60
2009,04,16,13,56,10.60
2009,04,16,13,57,10.60
2009,04,16,13,58,10.70
2009,04,16,13,59,10.80
2009,04,16,14,00,10.80
2009,04,16,14,01,10.80
2009,04,16,14,02,10.80
2009,04,16,14,03,10.90
2009,04,16,14,04,10.90
2009,04,16,14,05,11.00
2009,04,16,14,06,11.10
2009,04,16,14,07,11.10
2009,04,16,14,08,11.10
2009,04,16,14,09,11.10
2009,04,16,14,10,11.20
2009,04,16,14,11,11.30
2009,04,16,14,12,11.30
2009,04,16,14,13,11.30
2009,04,16,14,14,11.40
2009,04,16,14,15,11.40
2009,04,16,14,16,11.40
2009,04,16,14,17,11.40
2009,04,16,14,18,11.30
2009,04,16,14,19,11.30
2009,04,16,14,20,11.30
2009,04,16,14,21,11.30
2009,04,16,14,22,11.40
2009,04,16,14,23,11.40
2009,04,16,14,24,11.40
2009,04,16,14,25,11.30
2009,04,16,14,26,11.30
2009,04,16,14,27,11.30
2009,04,16,14,28,11.30
2009,04,16,14,29,11.30
2009,04,16,14,30,11.30
2009,04,16,14,31,11.30
2009,04,16,14,32,11.30
2009,04,16,14,33,11.30
2009,04,16,14,34,11.40
2009,04,16,14,35,11.50
2009,04,16,14,36,11.60
2009,04,16,14,37,11.60
2009,04,16,14,38,11.70
2009,04,16,14,39,11.80
2009,04,16,14,40,11.80
2009,04,16,14,41,11.80
2009,04,16,14,42,11.80
2009,04,16,14,43,11.90
2009,04,16,14,44,12.00
2009,04,16,14,45,12.00
2009,04,16,14,46,12.00
2009,04,16,14,47,12.00
2009,04,16,14,48,12.10
2009,04,16,14,49,12.10
2009,04,16,14,50,12.10
2009,04,16,14,51,12.20
2009,04,16,14,52,12.20
2009,04,16,14,53,12.30
2009,04,16,14,54,12.40
2009,04,16,14,55,12.50
2009,04,16,14,56,12.60
2009,04,16,14,57,12.70
2009,04,16,14,58,12.70
2009,04,16,14,59,12.80
2009,04,16,15,00,12.70
2009,04,16,15,01,12.70
2009,04,16,15,02,12.70
2009,04,16,15,03,12.70
2009,04,16,15,04,12.70
2009,04,16,15,05,12.70
2009,04,16,15,06,12.80
2009,04,16,15,07,12.80
2009,04,16,15,08,12.70
2009,04,16,15,09,12.70
2009,04,16,15,10,12.70
2009,04,16,15,11,12.80
2009,04,16,15,12,12.80
2009,04,16,15,13,12.90
2009,04,16,15,14,13.00
2009,04,16,15,15,13.00
2009,04,16,15,16,13.00
2009,04,16,15,17,13.00
2009,04,16,15,18,13.00
2009,04,16,15,19,13.00
2009,04,16,15,20,13.00
2009,04,16,15,21,12.90
2009,04,16,15,22,12.80
2009,04,16,15,23,12.80
2009,04,16,15,24,12.70
2009,04,16,15,25,12.60
2009,04,16,15,26,12.50
2009,04,16,15,27,12.50
2009,04,16,15,28,12.50
2009,04,16,15,29,12.50
2009,04,16,15,30,12.50
2009,04,16,15,31,12.40
2009,04,16,16,02,12.80
2009,04,16,16,03,12.70
2009,04,16,16,04,12.60
2009,04,16,16,05,12.50
2009,04,16,16,06,12.50
2009,04,16,16,07,12.60
2009,04,16,16,08,12.70
2009,04,16,16,09,12.70
2009,04,16,16,10,12.50
2009,04,16,16,11,12.40
2009,04,16,16,12,12.50
2009,04,16,16,13,12.60
2009,04,16,16,14,12.70
2009,04,16,16,15,12.70
2009,04,16,16,16,12.70
2009,04,16,16,17,12.70
2009,04,16,16,18,12.70
2009,04,16,16,19,12.80
2009,04,16,16,20,12.80
2009,04,16,16,21,12.80
2009,04,16,16,22,12.80
2009,04,16,16,23,12.80
2009,04,16,16,24,12.80
2009,04,16,16,25,12.80
2009,04,16,16,26,12.80
2009,04,16,16,27,12.80
2009,04,16,16,28,12.70
2009,04,16,16,29,12.60
2009,04,16,16,30,12.50
2009,04,16,16,31,12.50
2009,04,16,16,32,12.50
2009,04,16,16,33,12.60
2009,04,16,16,34,12.70
2009,04,16,16,35,12.80
2009,04,16,16,36,12.80
2009,04,16,16,37,12.80
2009,04,16,16,38,12.80
2009,04,16,16,39,12.90
2009,04,16,16,40,12.90
2009,04,16,16,41,12.90
2009,04,16,16,42,13.00
2009,04,16,16,43,13.00
2009,04,16,16,44,13.00
2009,04,16,16,45,13.00
2009,04,16,16,46,13.00
2009,04,16,16,47,13.00
2009,04,16,16,48,12.80
2009,04,16,16,49,12.60
2009,04,16,16,50,12.50
2009,04,16,16,51,12.40
2009,04,16,16,52,12.40
2009,04,16,16,53,12.30
2009,04,16,16,54,12.40
2009,04,16,16,55,12.40
2009,04,16,16,56,12.40
2009,04,16,16,57,12.50
2009,04,16,16,58,12.50
2009,04,16,16,59,12.50
2009,04,16,17,00,12.50
2009,04,16,17,01,12.50
2009,04,16,17,02,12.50
2009,04,16,17,03,12.50
2009,04,16,17,04,12.50
2009,04,16,17,05,12.40
2009,04,16,17,06,12.30
2009,04,16,17,07,12.30
2009,04,16,17,08,12.30
2009,04,16,17,09,12.30
2009,04,16,17,10,12.20
2009,04,16,17,11,12.10
2009,04,16,17,12,12.10
2009,04,16,17,13,12.10
2009,04,16,17,14,12.10
2009,04,16,17,15,12.20
2009,04,16,17,16,12.20
2009,04,16,17,17,12.30
2009,04,16,17,18,12.30
2009,04,16,17,19,12.30
2009,04,16,17,20,12.30
2009,04,16,17,21,12.30
2009,04,16,17,22,12.30
2009,04,16,17,23,12.40
2009,04,16,17,24,12.40
2009,04,16,17,25,12.40
2009,04,16,17,26,12.50
2009,04,16,17,27,12.50
2009,04,16,17,28,12.40
2009,04,16,17,29,12.30
2009,04,16,17,30,12.30
2009,04,16,17,31,12.20
2009,04,16,17,32,12.20
2009,04,16,17,33,12.20
2009,04,16,17,34,12.10
2009,04,16,17,35,12.10
2009,04,16,17,36,12.00
2009,04,16,17,37,12.00
2009,04,16,17,38,11.90
2009,04,16,17,39,11.90
2009,04,16,17,40,11.80
2009,04,16,17,41,11.80
2009,04,16,17,42,11.80
2009,04,16,17,43,11.80
2009,04,16,17,44,11.80
2009,04,16,17,45,11.90
2009,04,16,17,46,11.90
2009,04,16,17,47,11.90
2009,04,16,17,48,11.90
2009,04,16,17,49,12.00
2009,04,16,17,50,12.00
2009,04,16,17,51,12.00
2009,04,16,17,52,12.00
2009,04,16,17,53,12.00
2009,04,16,17,54,12.10
2009,04,16,17,55,12.10
2009,04,16,17,56,12.10
2009,04,16,17,57,12.10
2009,04,16,17,58,12.10
2009,04,16,17,59,12.10
2009,04,16,18,00,12.10
2009,04,16,18,01,12.10
2009,04,16,18,02,12.10
2009,04,16,18,03,12.10
2009,04,16,18,04,12.10
2009,04,16,18,05,12.10
2009,04,16,18,06,12.10
2009,04,16,18,07,12.10
2009,04,16,18,08,12.10
2009,04,16,18,09,12.10
2009,04,16,18,10,12.10
2009,04,16,18,11,12.10
2009,04,16,18,12,12.00
2009,04,16,18,13,12.00
2009,04,16,18,14,12.00
2009,04,16,18,15,12.00
2009,04,16,18,16,12.00
2009,04,16,18,17,12.00
2009,04,16,18,18,11.90
2009,04,16,18,19,11.90
2009,04,16,18,20,11.90
2009,04,16,18,21,11.80
2009,04,16,18,22,11.80
2009,04,16,18,23,11.80
2009,04,16,18,24,11.80
2009,04,16,18,25,11.80
2009,04,16,18,26,11.80
2009,04,16,18,27,11.80
2009,04,16,18,28,11.80
2009,04,16,18,29,11.80
2009,04,16,18,30,11.90
2009,04,16,18,31,11.90
2009,04,16,18,32,11.90
2009,04,16,18,33,11.90
2009,04,16,18,34,11.90
2009,04,16,18,35,11.90